Location: Chevoux
(46.3801°N, 4.9476°E)
Time: 03:57:05
(UTC+00:00)

ISS - Pass Details

Date: 04 December 2021
Orbit: 413 x 422 km, 51.6° (Epoch: 22 January)

Event Time Altitude Azimuth Distance (km) Brightness Sun altitude
Rises 16:49:39 0° 295° (WNW) 2,386 0.8 -9.3°
Reaches altitude 10° 16:51:49 10° 301° (WNW) 1,517 -0.4 -9.6°
Maximum altitude 16:55:08 50° 18° (NNE) 549 -3.4 -10.2°
Enters shadow 16:57:53 14° 93° (E) 1,287 -1.8 -10.6°
